Le nostre stazioni meteo in Italia

Pubblicità
Il mio iltempo24.it
Capo Bellavista, Italia (16550): Temperatura & dewpoint: 17.01.2019 05:00:00 - 23.01.2019 05:00:00 (CET)Capo Bellavista, Italia (16550): velocità del vento: 17.01.2019 05:00:00 - 23.01.2019 05:00:00 (CET)Capo Bellavista, Italia (16550): direzione del vento: 17.01.2019 05:00:00 - 23.01.2019 05:00:00 (CET)Capo Bellavista, Italia (16550): reduced air pressure: 17.01.2019 05:00:00 - 23.01.2019 05:00:00 (CET)Capo Bellavista, Italia (16550): visibility: 17.01.2019 05:00:00 - 23.01.2019 05:00:00 (CET)Capo Bellavista, Italia (16550): ore di luce: 17.01.2019 05:00:00 - 23.01.2019 05:00:00 (CET)
Data & Tempo tt [°C] td [°C] ff [km/h] ff [kn] dd ppp [hPa] vv [km] sd [min]
23.01.2019 05:00:00 7,0 -1,2 5 3 SO 1000,1 20 -
23.01.2019 04:00:00 7,0 -0,7 9 5 SO 1001,1 20 -
23.01.2019 03:00:00 7,0 -0,2 4 2 O 1002,0 20 -
23.01.2019 02:00:00 7,2 1,1 11 6 SO 1003,1 20 -
23.01.2019 01:00:00 7,2 -2,5 9 5 O 1003,4 20 -
23.01.2019 00:00:00 7,8 -6,3 5 3 NE 1004,1 20 -
22.01.2019 23:00:00 7,8 -5,6 4 2 ONO 1004,1 20 -
22.01.2019 22:00:00 8,0 -4,8 13 7 O 1004,1 20 -
22.01.2019 21:00:00 8,0 -3,8 13 7 OSO 1005,0 20 -
22.01.2019 20:00:00 7,6 -0,9 13 7 OSO 1005,1 20 -
22.01.2019 19:00:00 7,8 0,3 11 6 O 1005,1 20 0
22.01.2019 18:00:00 8,0 1,0 13 7 ONO 1005,3 20 6
22.01.2019 17:00:00 9,8 0,2 13 7 NNO 1005,1 25 36
22.01.2019 16:00:00 12,8 -1,5 4 2 ONO 1004,9 25 42
22.01.2019 15:00:00 11,2 -1,5 4 2 NNO 1005,6 25 36
22.01.2019 14:00:00 13,0 -1,7 5 3 N 1005,9 25 60
22.01.2019 13:00:00 11,0 -1,1 9 5 NO 1006,9 25 48
22.01.2019 12:00:00 11,4 -0,7 9 5 ONO 1007,6 30 60
22.01.2019 11:00:00 10,6 -1,4 8 4 ONO 1007,8 30 60
22.01.2019 10:00:00 10,2 -2,8 4 2 ONO 1008,1 20 60
22.01.2019 09:00:00 8,4 -0,1 4 2 ONO 1007,0 30 30
22.01.2019 08:00:00 8,0 -0,1 8 4 ONO 1006,4 30 0
22.01.2019 07:00:00 8,0 0,5 16 9 NO 1006,4 30 -
22.01.2019 06:00:00 8,6 1,2 8 4 N 1006,5 30 -
22.01.2019 05:00:00 8,4 1,5 5 3 ONO 1006,8 30 -
22.01.2019 04:00:00 8,6 2,7 5 3 NO 1007,3 30 -
22.01.2019 03:00:00 8,4 3,9 11 6 NNO 1007,3 30 -
22.01.2019 02:00:00 9,0 -30,0 11 6 NO 1007,3 25 6
22.01.2019 01:00:00 8,0 3,9 11 6 NO 1007,2 30 -
22.01.2019 00:00:00 9,0 4,6 9 5 NNO 1007,1 25 -
21.01.2019 23:00:00 8,4 5,2 9 5 NNO 1007,1 25 -
21.01.2019 22:00:00 8,2 6,7 9 5 NO 1006,8 10 -
21.01.2019 21:00:00 8,4 6,9 11 6 NO 1006,1 20 -
21.01.2019 20:00:00 9,4 6,3 9 5 NO 1006,1 20 -
21.01.2019 19:00:00 9,8 6,4 21 11 NO 1005,3 20 -
21.01.2019 18:00:00 10,0 7,4 13 7 N 1005,3 20 0
21.01.2019 17:00:00 10,0 7,4 9 5 N 1005,3 18 0
21.01.2019 16:00:00 9,6 8,1 22 12 N 1005,3 12 0
21.01.2019 15:00:00 9,6 8,5 5 3 N 1005,3 12 0
21.01.2019 14:00:00 9,4 8,7 13 7 NNO 1005,5 12 0
21.01.2019 13:00:00 9,2 8,8 18 10 NNO 1006,1 12 0
21.01.2019 12:00:00 9,8 9,4 28 15 NNE 1007,2 12 0
21.01.2019 11:00:00 9,8 9,4 21 11 NE 1007,5 12 0
21.01.2019 10:00:00 8,4 7,7 15 8 NE 1008,0 12 0
21.01.2019 09:00:00 8,0 6,6 26 14 N 1008,0 15 0
21.01.2019 08:00:00 7,8 6,3 29 16 NNE 1008,1 20 0
21.01.2019 07:00:00 7,4 5,9 11 6 N 1008,3 20 -
21.01.2019 06:00:00 8,8 5,9 15 8 NE 1010,3 20 -
21.01.2019 05:00:00 9,0 5,7 11 6 NNE 1010,2 20 -
21.01.2019 04:00:00 9,0 6,3 16 9 NNE 1010,2 20 -
21.01.2019 03:00:00 9,2 6,3 13 7 N 1010,2 20 -
21.01.2019 02:00:00 9,2 6,1 15 8 N 1010,3 20 -
21.01.2019 01:00:00 9,4 6,1 11 6 N 1010,2 20 -
21.01.2019 00:00:00 9,4 6,0 13 7 NNO 1010,2 20 -
20.01.2019 23:00:00 9,6 6,0 9 5 NNO 1010,2 20 -
20.01.2019 22:00:00 9,6 5,8 11 6 NO 1010,2 20 -
20.01.2019 21:00:00 10,0 5,8 8 4 NNO 1010,2 20 -
20.01.2019 20:00:00 10,2 5,8 9 5 NO 1010,1 20 -
20.01.2019 19:00:00 10,2 5,6 9 5 ESE 1009,8 20 -
20.01.2019 18:00:00 10,6 3,9 11 6 O 1011,2 30 60
20.01.2019 17:00:00 10,4 3,2 9 5 NO 1011,0 30 60
20.01.2019 16:00:00 11,0 4,2 9 5 ONO 1011,2 30 60
20.01.2019 15:00:00 10,8 3,8 8 4 ONO 1011,2 30 60
20.01.2019 14:00:00 10,6 3,9 11 6 O 1011,2 30 60
20.01.2019 13:00:00 10,4 3,2 5 3 NO 1011,0 30 60
20.01.2019 12:00:00 10,2 3,5 9 5 ONO 1011,0 30 60
20.01.2019 11:00:00 10,0 3,1 8 4 ONO 1010,9 30 60
20.01.2019 10:00:00 9,2 2,3 5 3 ONO 1010,6 30 60
20.01.2019 09:00:00 8,0 3,3 5 3 ONO 1010,7 30 24
20.01.2019 08:00:00 7,0 2,5 5 3 NO 1010,4 20 0
20.01.2019 07:00:00 7,8 2,5 5 3 NO 1010,2 20 -
20.01.2019 06:00:00 8,0 3,1 5 3 ONO 1010,2 20 -
20.01.2019 05:00:00 7,8 3,8 5 3 ONO 1011,2 20 -
20.01.2019 04:00:00 8,0 3,5 5 3 NO 1011,3 20 -
20.01.2019 03:00:00 7,6 3,5 5 3 NO 1011,4 20 -
20.01.2019 02:00:00 7,8 3,8 5 3 ONO 1011,5 20 -
20.01.2019 01:00:00 8,4 4,2 8 4 NO 1012,1 20 -
20.01.2019 00:00:00 8,6 4,4 8 4 NO 1012,2 20 -
19.01.2019 23:00:00 8,8 4,6 5 3 NO 1012,1 20 -
19.01.2019 22:00:00 9,4 3,2 5 3 O 1012,1 20 -
19.01.2019 21:00:00 9,6 4,2 5 3 O 1012,1 20 -
19.01.2019 20:00:00 9,6 4,8 5 3 O 1012,1 20 -
19.01.2019 19:00:00 9,4 5,0 5 3 ONO 1011,7 20 -
19.01.2019 18:00:00 10,0 5,6 5 3 NO 1011,4 20 0
19.01.2019 17:00:00 11,6 6,3 5 3 O 1011,4 20 0
19.01.2019 16:00:00 11,8 6,9 5 3 S 1012,9 20 0
19.01.2019 15:00:00 12,4 3,9 0 0 N 1011,9 30 0
19.01.2019 14:00:00 13,6 2,8 0 0 N 1012,8 30 0
19.01.2019 13:00:00 14,2 2,8 0 0 N 1013,1 30 60
19.01.2019 12:00:00 13,0 2,0 0 0 N 1013,3 30 60
19.01.2019 11:00:00 10,4 0,4 5 3 E 1014,1 30 54
19.01.2019 10:00:00 9,0 -0,1 5 3 NO 1013,7 30 30
19.01.2019 09:00:00 7,0 -0,3 18 10 NO 1013,4 30 6
19.01.2019 08:00:00 7,4 -1,5 16 9 ONO 1013,4 30 0
19.01.2019 07:00:00 7,8 -0,4 9 5 ONO 1013,2 20 -
19.01.2019 06:00:00 8,2 -2,2 15 8 ONO 1013,3 20 -
19.01.2019 05:00:00 8,6 -2,9 16 9 NO 1013,5 20 -
19.01.2019 04:00:00 8,2 -3,5 18 10 ONO 1013,7 20 -
19.01.2019 03:00:00 8,2 -2,8 11 6 NO 1013,8 20 -
19.01.2019 02:00:00 7,2 -7,4 22 12 NO 1013,7 20 -
19.01.2019 01:00:00 8,8 -7,8 22 12 NNO 1013,6 20 -
19.01.2019 00:00:00 9,8 -9,4 11 6 NNO 1013,5 20 -
18.01.2019 23:00:00 10,4 -10,1 18 10 N 1013,3 20 -
18.01.2019 22:00:00 10,6 -9,6 15 8 ONO 1013,1 20 -
18.01.2019 21:00:00 10,2 -7,6 4 2 ONO 1013,1 20 -
18.01.2019 20:00:00 10,2 5,5 15 8 NO 1013,0 20 -
18.01.2019 19:00:00 11,4 8,1 8 4 NNE 1012,9 20 -
18.01.2019 18:00:00 11,4 8,1 11 6 ESE 1012,1 20 12
18.01.2019 17:00:00 13,0 7,5 4 2 E 1011,7 30 60
18.01.2019 16:00:00 14,2 7,3 5 3 NNE 1011,5 20 60
18.01.2019 15:00:00 14,2 7,2 11 6 E 1011,6 30 60
18.01.2019 14:00:00 14,2 6,4 8 4 E 1011,7 30 60
18.01.2019 13:00:00 14,2 6,8 5 3 E 1012,1 30 54
18.01.2019 12:00:00 13,8 6,7 9 5 E 1012,7 30 60
18.01.2019 11:00:00 12,2 2,8 4 2 NE 1012,4 30 54
18.01.2019 10:00:00 10,8 2,8 5 3 ONO 1012,2 30 36
18.01.2019 09:00:00 10,0 2,1 9 5 NO 1012,2 30 0
18.01.2019 08:00:00 11,2 1,7 15 8 O 1012,0 30 0
18.01.2019 07:00:00 10,4 2,0 13 7 OSO 1012,1 20 -
18.01.2019 06:00:00 10,0 1,1 13 7 ONO 1014,1 20 -
18.01.2019 05:00:00 10,0 0,9 16 9 O 1014,0 20 -
18.01.2019 04:00:00 10,0 0,3 16 9 O 1014,1 20 -
18.01.2019 03:00:00 10,2 0,0 18 10 O 1014,1 20 -
18.01.2019 02:00:00 10,4 -1,0 13 7 O 1014,1 20 -
18.01.2019 01:00:00 10,4 -0,7 18 10 ONO 1014,0 20 -
18.01.2019 00:00:00 10,6 -1,1 16 9 O 1014,0 20 -
17.01.2019 23:00:00 10,6 -0,8 15 8 O 1014,1 20 -
17.01.2019 22:00:00 10,6 0,6 16 9 O 1014,1 20 -
17.01.2019 21:00:00 10,4 2,5 16 9 NO 1014,1 20 -
17.01.2019 20:00:00 10,8 5,8 18 10 NO 1014,1 20 -
17.01.2019 19:00:00 11,0 7,3 9 5 NO 1013,8 20 -
17.01.2019 18:00:00 12,0 8,8 9 5 NO 1013,8 20 0
17.01.2019 17:00:00 14,8 8,1 11 6 ESE 1013,5 30 60
17.01.2019 16:00:00 15,0 8,5 9 5 ESE 1013,6 30 60
17.01.2019 15:00:00 14,8 8,5 8 4 ESE 1013,7 30 60
17.01.2019 14:00:00 15,0 8,0 9 5 SE 1014,0 30 60
17.01.2019 13:00:00 14,4 9,4 8 4 SE 1014,6 30 60
17.01.2019 12:00:00 14,0 9,7 9 5 SE 1015,0 30 60
17.01.2019 11:00:00 13,0 5,4 8 4 ESE 1015,5 30 60
17.01.2019 10:00:00 12,4 7,5 8 4 E 1015,5 20 60
17.01.2019 09:00:00 - - - - - - - -
17.01.2019 08:00:00 9,6 6,3 2 1 NNO 1016,0 20 0
17.01.2019 07:00:00 8,8 5,4 5 3 NNE 1016,0 20 -
17.01.2019 06:00:00 8,8 5,4 9 5 NO 1016,2 20 -
17.01.2019 05:00:00 10,2 8,0 5 3 OSO 1016,3 20 -

tt = Temperatura
td = dewpoint
ff = velocità del vento
dd = direzione del vento
ppp = reduced air pressure
vv = visibility
sd = ore di luce

Stazioni seguenti

WeatherPro
AMSI
MeteoEarth